Time,TemperatureF,DewpointF,PressureIn,WindDirection,WindDirectionDegrees,WindSpeedMPH,WindSpeedGustMPH,Humidity,HourlyPrecipIn,Conditions,Clouds,dailyrainin,SoftwareType,DateUTC
2013-04-23 00:03:00,39.0,31.0,30.60,West,260,2.0,4.0,74,0.00,,,0.00,,2013-04-23 04:03:00,
2013-04-23 00:12:00,39.0,31.0,30.60,West,260,2.0,4.0,74,0.00,,,0.00,,2013-04-23 04:12:00,
2013-04-23 00:23:00,39.0,31.0,30.60,NW,319,1.0,5.0,74,0.00,,,0.00,,2013-04-23 04:23:00,
2013-04-23 00:33:00,39.0,31.0,30.59,SW,226,0.0,2.0,74,0.00,,,0.00,,2013-04-23 04:33:00,
2013-04-23 00:43:00,39.0,31.0,30.59,SW,226,0.0,2.0,74,0.00,,,0.00,,2013-04-23 04:43:00,
2013-04-23 00:53:00,39.0,32.0,30.58,East,82,2.0,4.0,76,0.00,,,0.00,,2013-04-23 04:53:00,
2013-04-23 01:02:00,39.0,32.0,30.58,SE,133,0.0,2.0,76,0.00,,,0.00,,2013-04-23 05:02:00,
2013-04-23 01:12:00,39.0,32.0,30.58,SE,133,0.0,2.0,76,0.00,,,0.00,,2013-04-23 05:12:00,
2013-04-23 01:22:00,39.0,32.0,30.58,East,83,0.0,2.0,76,0.00,,,0.00,,2013-04-23 05:22:00,
2013-04-23 01:32:00,39.0,32.0,30.57,ENE,70,1.0,4.0,76,0.00,,,0.00,,2013-04-23 05:32:00,
2013-04-23 01:42:00,39.0,32.0,30.57,ENE,70,1.0,4.0,76,0.00,,,0.00,,2013-04-23 05:42:00,
2013-04-23 01:52:00,40.0,33.0,30.57,ESE,110,0.0,5.0,76,0.00,,,0.00,,2013-04-23 05:52:00,
2013-04-23 02:02:00,40.0,33.0,30.56,ESE,103,2.0,5.0,75,0.00,,,0.00,,2013-04-23 06:02:00,
2013-04-23 02:12:00,40.0,33.0,30.56,ESE,103,2.0,5.0,75,0.00,,,0.00,,2013-04-23 06:12:00,
2013-04-23 02:21:00,40.0,33.0,30.55,NNW,343,0.0,4.0,75,0.00,,,0.00,,2013-04-23 06:21:00,
2013-04-23 02:33:00,40.0,33.0,30.55,SSE,163,0.0,4.0,76,0.00,,,0.00,,2013-04-23 06:33:00,
2013-04-23 02:42:00,40.0,33.0,30.55,SSE,163,0.0,4.0,76,0.00,,,0.00,,2013-04-23 06:42:00,
2013-04-23 02:52:00,40.0,33.0,30.53,ENE,63,2.0,5.0,76,0.00,,,0.00,,2013-04-23 06:52:00,
2013-04-23 03:02:00,40.0,33.0,30.53,ENE,65,1.0,4.0,76,0.00,,,0.00,,2013-04-23 07:02:00,
2013-04-23 03:11:00,40.0,33.0,30.53,ENE,65,1.0,4.0,76,0.00,,,0.00,,2013-04-23 07:11:00,
2013-04-23 03:22:00,40.0,33.0,30.53,SE,126,0.0,3.0,76,0.00,,,0.00,,2013-04-23 07:22:00,
2013-04-23 03:32:00,40.0,33.0,30.53,East,96,2.0,4.0,76,0.00,,,0.00,,2013-04-23 07:32:00,
2013-04-23 03:42:00,40.0,33.0,30.53,East,96,2.0,4.0,76,0.00,,,0.00,,2013-04-23 07:42:00,
2013-04-23 03:52:00,40.0,33.0,30.52,NE,41,1.0,3.0,77,0.00,,,0.00,,2013-04-23 07:52:00,
2013-04-23 04:02:00,40.0,33.0,30.51,SE,124,2.0,6.0,77,0.00,,,0.00,,2013-04-23 08:02:00,
2013-04-23 04:11:00,40.0,33.0,30.51,SE,124,2.0,6.0,77,0.00,,,0.00,,2013-04-23 08:11:00,
2013-04-23 04:21:00,40.0,33.0,30.52,SE,131,1.0,3.0,77,0.00,,,0.00,,2013-04-23 08:21:00,
2013-04-23 04:32:00,40.0,34.0,30.51,ENE,77,1.0,4.0,78,0.00,,,0.00,,2013-04-23 08:32:00,
2013-04-23 04:42:00,40.0,34.0,30.51,ENE,77,1.0,4.0,78,0.00,,,0.00,,2013-04-23 08:42:00,
2013-04-23 04:52:00,40.0,34.0,30.51,ENE,63,1.0,2.0,79,0.00,,,0.00,,2013-04-23 08:52:00,
2013-04-23 05:02:00,40.0,34.0,30.51,ESE,105,0.0,2.0,79,0.00,,,0.00,,2013-04-23 09:02:00,
2013-04-23 05:11:00,40.0,34.0,30.51,ESE,105,0.0,2.0,79,0.00,,,0.00,,2013-04-23 09:11:00,
2013-04-23 05:21:00,40.0,34.0,30.50,East,90,0.0,4.0,79,0.00,,,0.00,,2013-04-23 09:21:00,
2013-04-23 05:33:00,40.0,34.0,30.50,East,85,0.0,4.0,80,0.00,,,0.00,,2013-04-23 09:33:00,
2013-04-23 05:43:00,40.0,34.0,30.50,East,85,0.0,4.0,80,0.00,,,0.00,,2013-04-23 09:43:00,
2013-04-23 05:53:00,40.0,34.0,30.50,ENE,72,0.0,4.0,80,0.00,,,0.00,,2013-04-23 09:53:00,
2013-04-23 06:03:00,40.0,35.0,30.49,SE,139,2.0,7.0,81,0.00,,,0.00,,2013-04-23 10:03:00,
2013-04-23 06:13:00,40.0,35.0,30.49,SE,139,2.0,7.0,81,0.00,,,0.00,,2013-04-23 10:13:00,
2013-04-23 06:23:00,40.0,35.0,30.50,ENE,75,2.0,6.0,82,0.00,,,0.00,,2013-04-23 10:23:00,
2013-04-23 06:33:00,40.0,36.0,30.49,ENE,69,1.0,3.0,85,0.00,,,0.00,,2013-04-23 10:33:00,
2013-04-23 06:42:00,40.0,36.0,30.49,ENE,69,1.0,3.0,85,0.00,,,0.00,,2013-04-23 10:42:00,
2013-04-23 06:52:00,40.0,36.0,30.50,East,81,1.0,5.0,86,0.00,,,0.00,,2013-04-23 10:52:00,
2013-04-23 07:03:00,40.0,37.0,30.49,NE,49,2.0,5.0,88,0.00,,,0.00,,2013-04-23 11:03:00,
2013-04-23 07:12:00,40.0,37.0,30.49,NE,49,2.0,5.0,88,0.00,,,0.00,,2013-04-23 11:12:00,
2013-04-23 07:21:00,40.0,37.0,30.50,ESE,113,2.0,3.0,90,0.00,,,0.00,,2013-04-23 11:21:00,
2013-04-23 07:32:00,40.0,38.0,30.50,ENE,64,0.0,3.0,91,0.00,,,0.00,,2013-04-23 11:32:00,
2013-04-23 07:43:00,40.0,38.0,30.50,ENE,64,0.0,3.0,91,0.00,,,0.00,,2013-04-23 11:43:00,
2013-04-23 07:53:00,40.0,38.0,30.49,NNW,347,2.0,4.0,92,0.00,,,0.00,,2013-04-23 11:53:00,
2013-04-23 08:02:00,40.0,38.0,30.49,ENE,68,1.0,5.0,92,0.00,,,0.00,,2013-04-23 12:02:00,
2013-04-23 08:12:00,40.0,38.0,30.49,ENE,68,1.0,5.0,92,0.00,,,0.00,,2013-04-23 12:12:00,
2013-04-23 08:22:00,40.0,38.0,30.49,North,350,1.0,4.0,93,0.00,,,0.00,,2013-04-23 12:22:00,
2013-04-23 08:32:00,40.0,38.0,30.48,NW,325,2.0,7.0,93,0.01,,,0.01,,2013-04-23 12:32:00,
2013-04-23 08:42:00,40.0,38.0,30.48,NW,325,2.0,7.0,93,0.01,,,0.01,,2013-04-23 12:42:00,
2013-04-23 08:52:00,40.0,38.0,30.48,East,92,2.0,6.0,94,0.01,,,0.01,,2013-04-23 12:52:00,
2013-04-23 09:01:00,40.0,38.0,30.48,NE,50,2.0,5.0,94,0.02,,,0.02,,2013-04-23 13:01:00,
2013-04-23 09:11:00,40.0,38.0,30.48,NE,50,2.0,5.0,94,0.02,,,0.02,,2013-04-23 13:11:00,
2013-04-23 09:21:00,40.0,38.0,30.47,NNE,23,1.0,6.0,94,0.02,,,0.02,,2013-04-23 13:21:00,
2013-04-23 09:32:00,40.0,38.0,30.47,NW,326,4.0,8.0,94,0.01,,,0.02,,2013-04-23 13:32:00,
2013-04-23 09:42:00,40.0,38.0,30.47,NW,326,4.0,8.0,94,0.01,,,0.02,,2013-04-23 13:42:00,
2013-04-23 09:52:00,40.0,38.0,30.47,North,5,2.0,5.0,94,0.01,,,0.02,,2013-04-23 13:52:00,
2013-04-23 10:02:00,40.0,38.0,30.46,North,359,3.0,6.0,94,0.00,,,0.02,,2013-04-23 14:02:00,
2013-04-23 10:11:00,40.0,38.0,30.46,North,359,3.0,6.0,94,0.00,,,0.02,,2013-04-23 14:11:00,
2013-04-23 10:22:00,40.0,38.0,30.46,North,5,3.0,9.0,94,0.00,,,0.02,,2013-04-23 14:22:00,
2013-04-23 10:32:00,40.0,38.0,30.46,NNW,338,4.0,7.0,94,0.00,,,0.02,,2013-04-23 14:32:00,
2013-04-23 10:42:00,40.0,38.0,30.46,NNW,338,4.0,7.0,94,0.00,,,0.02,,2013-04-23 14:42:00,
2013-04-23 10:52:00,40.0,38.0,30.46,NNE,20,4.0,11.0,94,0.00,,,0.02,,2013-04-23 14:52:00,
2013-04-23 11:01:00,40.0,38.0,30.46,NNE,20,4.0,11.0,94,0.00,,,0.02,,2013-04-23 15:01:00,
2013-04-23 11:12:00,41.0,40.0,30.45,NNW,337,2.0,7.0,95,0.00,,,0.02,,2013-04-23 15:12:00,
2013-04-23 11:22:00,40.0,38.0,30.46,NNW,343,3.0,10.0,94,0.01,,,0.03,,2013-04-23 15:22:00,
2013-04-23 11:32:00,41.0,40.0,30.45,ENE,73,4.0,7.0,95,0.01,,,0.03,,2013-04-23 15:32:00,
2013-04-23 11:43:00,41.0,40.0,30.45,ENE,73,4.0,7.0,95,0.01,,,0.03,,2013-04-23 15:43:00,
2013-04-23 11:53:00,41.0,40.0,30.44,NNE,25,2.0,5.0,95,0.01,,,0.03,,2013-04-23 15:53:00,
2013-04-23 12:03:00,41.0,40.0,30.44,NNE,25,3.0,7.0,95,0.01,,,0.03,,2013-04-23 16:03:00,
2013-04-23 12:12:00,41.0,40.0,30.44,NNE,25,3.0,7.0,95,0.01,,,0.03,,2013-04-23 16:12:00,
2013-04-23 12:23:00,41.0,39.0,30.44,ENE,58,2.0,6.0,94,0.00,,,0.03,,2013-04-23 16:23:00,
2013-04-23 12:34:00,41.0,39.0,30.43,ENE,70,2.0,6.0,94,0.00,,,0.03,,2013-04-23 16:34:00,
2013-04-23 12:43:00,41.0,39.0,30.43,ENE,70,2.0,6.0,94,0.00,,,0.03,,2013-04-23 16:43:00,
2013-04-23 12:53:00,41.0,39.0,30.42,ENE,77,2.0,7.0,94,0.00,,,0.03,,2013-04-23 16:53:00,
2013-04-23 13:02:00,41.0,39.0,30.41,East,82,3.0,9.0,94,0.00,,,0.03,,2013-04-23 17:02:00,
2013-04-23 13:12:00,41.0,39.0,30.41,East,82,3.0,9.0,94,0.00,,,0.03,,2013-04-23 17:12:00,
2013-04-23 13:22:00,41.0,39.0,30.40,NNW,337,3.0,6.0,94,0.00,,,0.03,,2013-04-23 17:22:00,
2013-04-23 13:32:00,42.0,40.0,30.40,North,349,0.0,8.0,93,0.00,,,0.03,,2013-04-23 17:32:00,
2013-04-23 13:42:00,42.0,40.0,30.40,North,349,0.0,8.0,93,0.00,,,0.03,,2013-04-23 17:42:00,
2013-04-23 13:53:00,42.0,40.0,30.40,NW,316,2.0,6.0,93,0.00,,,0.03,,2013-04-23 17:53:00,
2013-04-23 14:02:00,42.0,40.0,30.39,ENE,60,4.0,12.0,93,0.00,,,0.03,,2013-04-23 18:02:00,
2013-04-23 14:12:00,42.0,40.0,30.39,ENE,60,4.0,12.0,93,0.00,,,0.03,,2013-04-23 18:12:00,
2013-04-23 14:22:00,42.0,40.0,30.37,NNW,338,3.0,7.0,93,0.00,,,0.03,,2013-04-23 18:22:00,
2013-04-23 14:32:00,42.0,40.0,30.37,East,86,2.0,7.0,93,0.00,,,0.03,,2013-04-23 18:32:00,
2013-04-23 14:42:00,42.0,40.0,30.37,East,86,2.0,7.0,93,0.00,,,0.03,,2013-04-23 18:42:00,
2013-04-23 14:52:00,41.0,39.0,30.36,NNE,15,3.0,6.0,93,0.00,,,0.03,,2013-04-23 18:52:00,
2013-04-23 15:02:00,41.0,39.0,30.36,NNE,25,3.0,7.0,93,0.00,,,0.03,,2013-04-23 19:02:00,
2013-04-23 15:11:00,41.0,39.0,30.36,NNE,25,3.0,7.0,93,0.00,,,0.03,,2013-04-23 19:11:00,
2013-04-23 15:22:00,41.0,39.0,30.34,NE,34,2.0,10.0,94,0.00,,,0.03,,2013-04-23 19:22:00,
2013-04-23 15:32:00,41.0,39.0,30.34,SSW,198,4.0,11.0,94,0.00,,,0.03,,2013-04-23 19:32:00,
2013-04-23 15:42:00,41.0,39.0,30.34,SSW,198,4.0,11.0,94,0.00,,,0.03,,2013-04-23 19:42:00,
2013-04-23 15:52:00,41.0,39.0,30.34,NNW,338,3.0,9.0,94,0.00,,,0.03,,2013-04-23 19:52:00,
2013-04-23 16:02:00,41.0,40.0,30.33,NNE,12,2.0,8.0,95,0.00,,,0.03,,2013-04-23 20:02:00,
2013-04-23 16:11:00,41.0,40.0,30.33,NNE,12,2.0,8.0,95,0.00,,,0.03,,2013-04-23 20:11:00,
2013-04-23 16:22:00,41.0,40.0,30.33,North,353,3.0,6.0,95,0.00,,,0.03,,2013-04-23 20:22:00,
2013-04-23 16:32:00,41.0,40.0,30.32,NNW,343,5.0,10.0,95,0.00,,,0.03,,2013-04-23 20:32:00,
2013-04-23 16:42:00,41.0,40.0,30.32,NNW,343,5.0,10.0,95,0.00,,,0.03,,2013-04-23 20:42:00,
2013-04-23 16:52:00,41.0,40.0,30.32,North,349,3.0,8.0,95,0.00,,,0.03,,2013-04-23 20:52:00,
2013-04-23 17:02:00,41.0,40.0,30.32,North,354,3.0,12.0,95,0.00,,,0.03,,2013-04-23 21:02:00,
2013-04-23 17:12:00,41.0,40.0,30.32,North,354,3.0,12.0,95,0.00,,,0.03,,2013-04-23 21:12:00,
2013-04-23 17:22:00,41.0,40.0,30.32,NNE,19,4.0,10.0,95,0.01,,,0.04,,2013-04-23 21:22:00,
2013-04-23 17:33:00,41.0,40.0,30.32,NNW,343,4.0,10.0,95,0.01,,,0.04,,2013-04-23 21:33:00,
2013-04-23 17:43:00,41.0,40.0,30.32,NNW,343,4.0,10.0,95,0.01,,,0.04,,2013-04-23 21:43:00,
2013-04-23 17:53:00,41.0,40.0,30.31,North,4,4.0,9.0,95,0.01,,,0.04,,2013-04-23 21:53:00,
2013-04-23 18:03:00,41.0,40.0,30.30,NE,40,3.0,13.0,95,0.02,,,0.05,,2013-04-23 22:03:00,
2013-04-23 18:12:00,41.0,40.0,30.30,NE,40,3.0,13.0,95,0.02,,,0.05,,2013-04-23 22:12:00,
2013-04-23 18:23:00,41.0,40.0,30.29,NW,305,4.0,12.0,95,0.01,,,0.05,,2013-04-23 22:23:00,
2013-04-23 18:33:00,41.0,40.0,30.28,North,1,6.0,11.0,95,0.02,,,0.06,,2013-04-23 22:33:00,
2013-04-23 18:42:00,41.0,40.0,30.28,North,1,6.0,11.0,95,0.02,,,0.06,,2013-04-23 22:42:00,
2013-04-23 18:52:00,41.0,40.0,30.27,NNE,32,6.0,10.0,95,0.02,,,0.06,,2013-04-23 22:52:00,
2013-04-23 19:03:00,41.0,40.0,30.27,North,9,5.0,13.0,95,0.01,,,0.06,,2013-04-23 23:03:00,
2013-04-23 19:12:00,41.0,40.0,30.27,North,9,5.0,13.0,95,0.01,,,0.06,,2013-04-23 23:12:00,
2013-04-23 19:22:00,41.0,40.0,30.26,North,1,4.0,14.0,95,0.01,,,0.06,,2013-04-23 23:22:00,
2013-04-23 19:32:00,41.0,40.0,30.26,North,1,6.0,13.0,95,0.00,,,0.06,,2013-04-23 23:32:00,
2013-04-23 19:42:00,41.0,40.0,30.26,North,1,6.0,13.0,95,0.00,,,0.06,,2013-04-23 23:42:00,
2013-04-23 19:52:00,41.0,40.0,30.24,NNW,328,8.0,13.0,95,0.00,,,0.06,,2013-04-23 23:52:00,
2013-04-23 20:02:00,41.0,40.0,30.24,NNW,332,6.0,14.0,95,0.00,,,0.06,,2013-04-24 00:02:00,
2013-04-23 20:11:00,41.0,40.0,30.24,NNW,332,6.0,14.0,95,0.00,,,0.06,,2013-04-24 00:11:00,
2013-04-23 20:22:00,41.0,40.0,30.24,North,360,6.0,13.0,95,0.01,,,0.07,,2013-04-24 00:22:00,
2013-04-23 20:32:00,41.0,40.0,30.23,North,349,6.0,11.0,95,0.01,,,0.07,,2013-04-24 00:32:00,
2013-04-23 20:42:00,41.0,40.0,30.23,North,349,6.0,11.0,95,0.01,,,0.07,,2013-04-24 00:42:00,
2013-04-23 20:52:00,41.0,40.0,30.23,NW,315,4.0,11.0,95,0.01,,,0.07,,2013-04-24 00:52:00,
2013-04-23 21:02:00,41.0,40.0,30.22,North,5,7.0,13.0,95,0.02,,,0.08,,2013-04-24 01:02:00,
2013-04-23 21:11:00,41.0,40.0,30.22,North,5,7.0,13.0,95,0.02,,,0.08,,2013-04-24 01:11:00,
2013-04-23 21:21:00,41.0,40.0,30.22,NNE,20,8.0,16.0,95,0.01,,,0.08,,2013-04-24 01:21:00,
2013-04-23 21:32:00,41.0,40.0,30.21,North,349,6.0,11.0,96,0.01,,,0.08,,2013-04-24 01:32:00,
2013-04-23 21:42:00,41.0,40.0,30.21,North,349,6.0,11.0,96,0.01,,,0.08,,2013-04-24 01:42:00,
2013-04-23 21:52:00,41.0,40.0,30.19,NNW,338,6.0,13.0,96,0.01,,,0.08,,2013-04-24 01:52:00,
2013-04-23 22:02:00,41.0,40.0,30.19,NW,326,4.0,14.0,96,0.00,,,0.08,,2013-04-24 02:02:00,
2013-04-23 22:19:00,41.0,40.0,30.19,NW,326,4.0,14.0,96,0.00,,,0.08,,2013-04-24 02:19:00,
2013-04-23 22:30:00,42.0,41.0,30.18,NNE,25,8.0,12.0,96,0.00,,,0.08,,2013-04-24 02:30:00,
2013-04-23 22:40:00,42.0,41.0,30.18,NNW,336,10.0,15.0,96,0.00,,,0.08,,2013-04-24 02:40:00,
2013-04-23 22:48:00,42.0,41.0,30.18,NNW,336,10.0,15.0,96,0.00,,,0.08,,2013-04-24 02:48:00,
2013-04-23 22:56:00,42.0,41.0,30.17,NNW,328,6.0,14.0,96,0.00,,,0.08,,2013-04-24 02:56:00,
2013-04-23 23:18:00,42.0,41.0,30.17,NNW,340,7.0,18.0,96,0.00,,,0.08,,2013-04-24 03:18:00,
2013-04-23 23:31:00,42.0,41.0,30.16,North,9,6.0,15.0,96,0.01,,,0.09,,2013-04-24 03:31:00,
2013-04-23 23:41:00,42.0,41.0,30.16,NNE,12,6.0,11.0,96,0.01,,,0.09,,2013-04-24 03:41:00,
2013-04-23 23:51:00,42.0,41.0,30.16,NNE,12,6.0,11.0,96,0.01,,,0.09,,2013-04-24 03:51:00,